Portada
METAR-TAF:

METAR-TAF

Aeroports :

Sparta, Wisconsin, Estats Units d'Amèrica

latitud: 43-57-30N, longitud: 090-44-16W, altitud: 255 m

Observació

L'informe es va fer fa 12 minuts, a les 11:55 UTC
Vent calma
Temperatura 3°C
Humitat 70%
Pressió 1016 hPa
Visibilitat: 16.1 km
Cel clar

METAR: KCMY 161155Z AUTO 00000KT 10SM CLR 03/M02 A3001 RMK AO2 60001 7//// T00261017 10027 21045

Hora: 07:07 (12:07 UTC)


TAF: manca

Observacions i pronòstics meteorològics de més de 4000 aeroports (METAR i TAF).

Les estacions disponibles són els punts grocs i vermells al mapa.

Posi el ratolí al punt desitjat per veure el nom de l'estació.

Feu clic per veure les observacions i els pronòstics meteorològics.

Per canviar el mapa: feu clic els botons verds amb una creu de color negre per apropar; al botó verd amb un guió per allunyar la imatge; o en les fletxes verdes per a mapes adjacents.


METAR-TAF: